Location: *
(51.1248°S, 108.4023°W)
Time: 14:29:15
(UTC+00:00)

H-2A R/B - Pass Details

Date: 23 October 2021
Orbit: 578 x 653 km, 98.5° (Epoch: 09 December)

Event Time Altitude Azimuth Distance (km) Brightness Sun altitude
Rises 02:45:29 0° 317° (NW) 2,944 5.7 -7.1°
Reaches altitude 10° 02:49:37 10° 279° (W) 2,067 5.6 -7.7°
Maximum altitude 02:50:40 11° 265° (W) 2,026 5.9 -7.8°
Drops below altitude 10° 02:51:44 10° 251° (WSW) 2,081 6.4 -8.0°
Sets 02:56:00 0° 213° (SSW) 3,018 6.9 -8.5°
